Temperature
9 8 8 8 8 8 8 8 8 8 8 8 8 8 8 8 8 8 8 8 8 8 8 8 7 6 6 5 5 5 5 5 5 5 5 5 5 5 5 5 5 5 5
8 8 8 8 8 8 8 8 7 7 8 8 8 8 8 8 8 8 8 8 8 8 8 8 8 7 6 6 5 5 5 5 5 5 5 5 4 4 5 4 4 4 5
8 8 8 8 8 8 7 7 7 7 7 7 8 8 8 8 8 8 8 8 9 9 9 8 8 8 8 7 6 5 5 5 5 5 4 4 4 4 4 4 4 4 4
8 8 7 7 7 7 7 7 7 7 7 7 7 7 7 8 8 8 8 8 9 9 9 9 9 8 8 8 7 6 6 5 5 5 4 4 4 4 4 3 3 3 3
8 8 7 7 7 7 7 7 7 6 6 6 6 6 7 7 8 8 8 8 8 9 9 9 9 8 8 8 8 7 6 6 5 5 4 4 4 4 4 3 3 3 3
8 8 8 7 7 7 7 7 7 6 6 6 5 5 6 6 7 8 8 8 8 9 9 9 9 9 9 8 8 8 7 6 6 5 5 4 4 4 3 3 3 3 3
9 8 8 8 7 7 7 7 6 6 6 6 5 5 5 6 6 7 8 8 8 9 9 9 9 9 9 9 8 8 7 7 6 5 5 4 4 4 3 3 3 3 3
9 9 8 8 8 7 8 7 7 6 6 6 4 4 4 6 6 6 6 7 8 8 8 9 9 9 9 8 8 8 8 7 6 5 5 4 4 4 3 3 3 3 3
9 9 9 8 8 8 8 8 7 6 6 5 4 4 3 5 6 5 5 6 6 6 7 7 7 7 7 7 7 8 7 7 6 5 5 4 4 3 3 3 3 3 3
9 9 8 8 8 7 7 7 7 6 5 5 4 3 3 3 3 4 4 4 5 5 5 5 6 6 6 6 6 7 7 6 6 5 4 4 3 3 3 3 3 3 3
8 8 8 8 7 7 7 7 6 6 5 5 5 4 3 2 2 1 2 4 4 4 4 4 4 4 5 5 5 6 6 6 5 5 4 4 3 3 3 3 3 3 3
8 7 7 7 7 7 6 6 6 6 5 5 4 4 3 1 2 1 1 2 3 3 3 3 2 3 4 4 5 5 5 5 5 4 4 4 3 3 3 3 3 3 3
7 7 6 6 6 6 6 6 5 5 5 4 4 3 3 2 2 1 1 1 2 2 2 2 2 2 2 3 4 4 4 4 4 3 3 3 3 2 2 2 2 2 2
6 6 6 6 6 5 5 5 5 4 4 4 3 3 2 2 1 1 0 -0 0 1 2 2 2 1 1 2 2 3 3 3 3 3 2 2 2 2 1 1 1 1 2
5 6 5 5 5 5 5 4 3 3 3 2 2 2 1 1 1 0 -0 -1 -1 -1 1 2 2 1 1 1 1 1 2 2 2 1 1 1 1 1 1 1 1 1 1
5 5 5 4 4 4 3 2 2 2 1 1 1 0 0 0 -0 -1 -1 -1 -2 -2 -1 0 1 0 -0 -1 -0 -0 0 0 0 0 0 -0 -0 -0 -0 -0 -0 -0 0
4 4 4 3 3 3 2 1 1 0 0 -0 -0 -1 -1 -1 -1 -1 -2 -2 -2 -3 -2 -1 -1 -1 -1 -2 -2 -2 -1 -1 -1 -1 -1 -1 -1 -1 -1 -1 -1 -1 -1
3 3 2 2 2 1 1 0 -0 -0 -1 -1 -1 -1 -1 -2 -2 -2 -2 -2 -3 -3 -3 -2 -2 -2 -2 -2 -3 -3 -2 -2 -2 -2 -2 -2 -2 -2 -2 -2 -2 -2 -1
2 2 1 1 1 0 -0 -0 -1 -1 -1 -2 -2 -2 -2 -2 -2 -2 -3 -3 -3 -3 -3 -3 -3 -3 -3 -3 -3 -3 -3 -3 -3 -3 -3 -3 -3 -3 -3 -3 -2 -2 -2
2 1 1 0 -0 -1 -1 -1 -1 -2 -2 -2 -2 -2 -2 -3 -3 -3 -3 -3 -3 -3 -3 -4 -3 -3 -3 -4 -4 -4 -4 -4 -4 -3 -3 -3 -3 -3 -3 -3 -3 -3 -3
1 0 0 -0 -1 -1 -1 -2 -2 -3 -3 -3 -3 -3 -3 -3 -3 -3 -3 -3 -3 -3 -3 -4 -4 -4 -4 -4 -4 -4 -4 -4 -4 -4 -4 -4 -4 -4 -4 -4 -4 -3 -3
-0 -0 -1 -1 -1 -2 -2 -2 -3 -4 -4 -4 -3 -3 -3 -3 -3 -3 -3 -3 -3 -3 -3 -4 -4 -4 -3 -4 -4 -4 -4 -5 -4 -4 -4 -4 -4 -4 -4 -4 -4 -4 -4
-1 -1 -2 -2 -2 -2 -3 -3 -4 -4 -4 -4 -4 -4 -4 -4 -4 -4 -4 -4 -4 -4 -3 -3 -4 -4 -4 -4 -4 -4 -4 -5 -4 -4 -5 -5 -5 -5 -5 -5 -5 -4 -4
-2 -2 -3 -3 -3 -3 -3 -4 -4 -4 -4 -4 -4 -4 -4 -4 -4 -4 -4 -4 -4 -4 -4 -4 -4 -4 -4 -4 -4 -4 -4 -4 -5 -5 -5 -5 -5 -5 -5 -5 -5 -5 -5
-3 -3 -3 -3 -3 -3 -4 -4 -5 -5 -5 -5 -5 -5 -4 -4 -4 -4 -4 -4 -4 -4 -4 -4 -4 -4 -4 -4 -4 -4 -4 -5 -5 -5 -5 -6 -6 -6 -6 -6 -6 -5 -5
-3 -3 -4 -4 -4 -4 -5 -5 -5 -5 -5 -5 -5 -5 -4 -4 -4 -4 -4 -4 -4 -4 -4 -4 -4 -4 -4 -4 -4 -4 -4 -5 -5 -5 -5 -6 -6 -6 -6 -6 -6 -6 -6
Wind_Speed
10 10 10 10 10 10 10 10 11 11 12 12 13 13 14 14 14 14 13 15 18 19 19 19 19 19 18 18 17 17 16 15 15 14 13 12 11 10 9 8 7 7 6
12 11 11 11 12 12 12 12 13 12 12 12 13 15 16 16 16 16 16 16 19 22 23 23 23 22 22 21 21 20 20 19 18 18 17 16 15 14 13 12 11 10 9
14 13 12 12 13 13 14 13 14 13 12 12 14 16 17 18 18 18 18 18 17 21 25 26 26 26 25 25 24 23 23 22 22 21 20 19 18 17 16 15 14 13 12
17 15 13 13 15 14 13 12 11 11 12 12 13 13 14 16 19 20 20 20 19 19 22 27 29 29 29 29 28 27 26 25 25 24 24 23 22 20 19 18 17 16 15
17 16 15 15 15 13 12 11 12 12 13 14 14 14 14 14 16 19 21 22 23 22 22 23 28 31 32 32 31 31 30 29 28 27 27 26 25 24 23 21 20 19 18
16 16 15 17 16 12 12 12 14 14 13 13 14 15 15 16 16 17 19 21 23 25 26 25 24 26 32 35 35 34 33 32 31 30 30 29 28 27 26 25 23 22 21
15 15 14 15 14 12 14 15 14 15 14 12 12 13 16 19 20 18 17 18 20 24 25 25 24 23 23 30 36 37 36 35 34 33 32 31 31 30 28 27 26 25 24
15 14 15 13 13 12 15 15 15 13 12 10 9 10 10 11 14 15 16 16 18 18 19 24 24 24 23 22 25 33 37 38 37 36 35 34 33 32 31 30 29 28 27
13 14 15 14 13 13 13 14 14 16 13 12 12 11 9 9 9 8 12 13 15 14 15 17 21 23 24 23 22 26 33 37 38 38 37 36 35 34 34 33 31 30 29
10 12 14 14 14 12 14 14 14 14 15 14 12 13 15 12 10 9 9 11 13 15 16 15 16 20 23 23 24 27 29 32 35 37 38 38 37 36 35 34 33 32 31
9 10 12 12 12 12 14 15 15 15 14 15 14 13 14 15 17 14 16 16 14 14 15 17 16 17 21 23 23 26 30 32 33 35 37 37 38 38 37 36 35 34 33
7 9 10 11 12 12 13 14 15 17 16 17 15 15 15 13 13 15 17 18 18 17 16 15 16 16 19 21 25 28 30 32 33 34 35 36 37 38 38 37 36 35 34
8 10 9 10 11 12 13 14 15 16 17 18 18 16 16 17 16 16 18 19 20 18 18 16 16 16 18 21 22 27 30 32 33 33 34 35 36 37 37 37 36 36 35
10 12 12 12 13 14 14 14 14 16 16 17 19 19 16 17 16 17 17 18 19 20 19 20 15 16 16 19 22 24 25 30 32 33 33 34 34 35 36 36 36 36 35
10 13 13 14 14 14 15 15 14 16 16 17 18 19 18 16 16 16 16 16 17 19 22 22 17 16 14 16 19 21 22 26 29 31 32 33 34 34 35 36 36 36 35
13 14 14 15 15 15 16 15 15 16 17 18 16 18 19 17 16 16 16 16 17 18 21 19 16 14 12 13 18 20 21 25 27 29 30 31 32 33 34 34 35 36 35
14 15 15 16 16 16 16 16 17 18 19 19 18 19 20 20 17 16 16 16 16 17 21 23 18 17 18 17 16 17 19 19 19 26 28 29 30 31 32 33 34 35 35
15 15 16 16 17 17 17 17 18 18 19 20 20 20 20 17 20 17 16 18 17 18 19 25 21 17 19 18 17 17 16 15 17 21 25 27 29 29 30 31 32 33 34
16 16 16 17 17 17 17 18 18 19 19 20 19 19 19 19 20 17 18 17 16 16 17 20 21 17 15 14 16 17 18 16 17 19 23 26 28 28 29 30 31 32 32
16 17 17 17 18 18 16 17 17 18 19 19 19 18 19 19 20 20 17 18 17 17 17 18 18 16 15 14 13 14 15 15 15 15 18 20 23 27 29 29 30 30 30
16 17 17 18 18 16 14 15 16 17 19 19 19 19 19 21 23 21 17 15 15 15 16 16 17 16 15 12 13 13 15 14 15 14 13 14 15 15 17 24 28 29 30
17 17 17 18 18 15 19 23 21 18 18 18 18 18 18 20 23 26 28 27 23 18 16 16 16 16 17 16 14 13 14 13 13 10 13 14 13 14 14 14 21 27 29
17 18 18 18 18 19 22 24 24 20 19 18 17 16 15 15 20 17 20 24 24 27 26 19 18 18 17 15 14 15 15 15 16 12 9 12 12 14 13 15 22 24 26
16 17 18 18 18 19 22 24 24 20 18 17 17 16 17 17 16 17 15 16 17 18 20 17 15 15 16 14 13 14 15 15 15 12 11 11 12 12 12 13 19 23 25
17 17 17 18 18 19 21 23 23 16 15 17 16 16 16 17 21 23 17 16 17 16 19 23 24 22 24 24 18 11 12 11 12 12 12 10 10 11 11 12 14 21 24
17 17 17 17 18 18 21 22 23 13 14 15 14 14 19 20 22 23 16 15 16 15 14 14 16 18 17 18 21 14 11 12 10 9 11 11 10 9 7 10 12 12 15
Wind_Direction
226 229 235 238 241 244 244 248 252 256 255 256 255 256 258 257 255 253 253 248 249 253 256 259 260 259 256 252 248 245 244 243 243 244 244 243 244 246 247 249 253 258 267
232 233 240 242 245 245 248 251 255 259 259 257 258 256 257 258 255 253 252 251 247 247 250 253 255 256 256 254 251 247 243 242 241 241 241 241 241 242 243 245 247 250 254
236 238 244 247 248 249 250 252 256 259 260 260 259 259 258 256 255 253 252 250 249 245 245 247 250 252 253 253 252 250 246 243 241 240 240 240 240 240 240 241 243 246 248
240 243 247 251 253 252 249 250 254 255 256 258 261 260 257 254 254 254 252 249 247 246 245 243 245 247 249 250 250 249 248 245 242 240 239 239 239 239 239 240 241 242 245
243 245 250 255 257 254 251 253 255 256 261 263 264 264 261 258 256 254 251 249 245 244 245 245 243 245 246 247 248 247 247 245 243 241 239 238 238 238 238 238 239 240 242
246 247 253 257 258 255 253 254 256 258 260 267 272 270 266 262 257 253 252 251 247 244 243 244 244 244 243 244 245 246 245 244 243 242 239 238 237 237 237 237 238 238 240
250 248 252 257 255 253 255 258 259 261 260 262 269 273 267 257 252 250 248 248 247 244 242 241 241 242 242 241 242 243 243 243 243 242 240 238 237 236 237 237 237 237 239
254 253 253 255 256 256 257 257 257 258 259 250 251 275 282 274 249 241 242 243 245 244 242 240 240 239 240 241 240 240 241 242 242 242 241 240 238 236 236 236 236 237 238
258 254 255 257 258 255 257 257 253 250 253 252 236 244 265 272 295 251 236 239 242 242 242 242 240 239 238 238 240 240 240 242 242 242 241 240 239 237 236 235 235 236 237
266 260 258 258 259 257 256 257 254 251 251 254 251 237 244 263 274 282 254 240 243 246 247 245 243 240 238 238 237 237 238 240 242 243 243 241 240 238 237 235 235 235 236
274 266 261 260 258 257 257 257 256 252 247 248 250 250 247 250 252 258 271 268 258 249 247 248 248 244 241 238 238 238 238 239 241 242 243 243 242 240 239 237 236 235 235
290 278 268 263 261 260 259 258 257 254 251 250 249 249 249 248 246 248 261 268 268 264 256 249 247 247 244 242 241 240 239 240 241 241 242 242 242 242 241 239 237 236 235
300 297 288 276 272 266 264 263 261 259 255 253 251 250 249 249 252 255 262 269 272 272 267 259 250 247 246 245 245 242 243 243 243 242 241 241 241 242 241 241 240 238 236
299 300 295 286 280 277 272 267 265 262 260 257 256 254 254 253 252 251 254 265 273 274 268 262 254 247 245 245 246 242 246 245 244 243 242 241 241 241 241 240 240 240 239
298 297 294 290 286 282 277 274 269 267 265 262 261 259 257 256 254 253 252 251 258 271 274 271 264 254 245 245 246 246 247 248 246 245 243 242 241 240 240 240 239 240 239
300 297 295 293 290 287 283 278 275 272 271 268 265 264 262 261 258 255 253 252 249 255 268 271 270 265 254 250 249 249 251 252 250 249 247 244 242 241 240 240 239 238 238
300 298 297 295 292 290 287 283 279 278 275 274 271 268 266 264 262 259 256 253 250 250 259 269 268 265 259 253 252 250 252 252 251 248 248 247 245 243 241 241 240 238 236
301 299 297 294 291 289 287 285 284 282 279 277 275 273 270 269 264 262 259 256 253 250 254 266 270 267 263 258 254 252 252 251 252 251 248 247 246 244 243 242 241 239 237
301 299 296 293 292 290 288 286 285 283 281 279 277 275 273 272 269 265 261 259 257 255 253 260 268 267 264 258 256 253 252 252 252 250 248 247 246 246 245 244 242 240 238
300 299 297 294 292 290 287 285 284 284 282 279 277 274 272 269 268 268 265 262 259 257 256 258 263 265 261 255 250 250 250 247 249 247 247 246 246 245 244 243 242 241 239
299 298 296 294 292 290 285 283 284 282 281 279 276 273 270 268 266 266 264 261 257 256 256 256 259 260 257 250 244 242 247 250 249 243 243 241 241 240 238 240 240 240 239
301 299 297 295 294 290 290 292 292 289 285 282 279 277 274 273 272 271 271 269 263 257 254 256 259 258 257 252 247 242 242 245 248 235 235 239 233 237 235 235 236 236 236
303 300 298 297 295 295 295 296 297 296 290 287 284 282 281 279 280 275 275 275 273 269 263 259 259 258 260 256 250 243 238 238 243 239 232 241 235 236 235 234 236 235 235
303 301 300 299 298 298 300 301 302 299 293 289 287 284 283 282 280 278 273 270 268 268 267 265 262 262 261 259 249 245 245 244 246 242 228 241 238 238 236 234 235 234 236
303 302 301 301 299 299 301 303 302 299 294 291 288 284 282 280 280 281 277 272 272 270 269 264 262 261 259 258 252 242 236 236 241 235 222 229 238 238 237 235 232 232 235
302 302 299 299 298 299 301 302 303 299 296 294 291 285 282 281 283 284 280 275 274 274 271 269 266 264 264 260 258 242 234 236 238 236 214 213 226 224 237 234 231 228 230
Height
1560 1560 1560 1560 1560 1560 1559 1558 1558 1557 1555 1554 1553 1552 1551 1550 1549 1548 1547 1546 1546 1545 1544 1544 1543 1544 1544 1544 1543 1542 1541 1541 1540 1540 1539 1539 1539 1538 1538 1538 1538 1537 1537
1557 1557 1557 1556 1556 1556 1555 1555 1554 1553 1551 1550 1549 1548 1547 1546 1544 1543 1542 1541 1540 1540 1539 1539 1538 1538 1539 1539 1539 1538 1538 1537 1537 1536 1536 1535 1535 1535 1535 1534 1534 1534 1534
1553 1553 1553 1553 1552 1552 1551 1550 1549 1548 1546 1545 1543 1542 1540 1539 1538 1537 1536 1534 1534 1533 1533 1532 1532 1532 1532 1532 1533 1533 1533 1532 1532 1532 1531 1531 1531 1531 1531 1531 1530 1531 1531
1549 1549 1548 1548 1548 1547 1546 1545 1544 1542 1540 1538 1536 1535 1533 1531 1530 1529 1528 1527 1526 1525 1525 1525 1525 1525 1525 1525 1525 1526 1526 1526 1526 1526 1526 1526 1526 1526 1526 1526 1526 1526 1527
1544 1544 1543 1543 1542 1541 1539 1538 1537 1536 1534 1532 1529 1527 1525 1523 1521 1520 1519 1518 1517 1516 1516 1516 1516 1516 1516 1516 1517 1517 1518 1519 1519 1519 1520 1520 1520 1520 1521 1521 1521 1522 1522
1538 1538 1537 1537 1536 1534 1533 1532 1530 1529 1527 1525 1522 1519 1516 1513 1511 1509 1508 1508 1507 1506 1506 1507 1506 1506 1506 1506 1507 1508 1508 1510 1510 1511 1512 1513 1513 1514 1515 1515 1516 1516 1517
1533 1532 1531 1530 1529 1527 1526 1525 1523 1521 1519 1518 1514 1510 1506 1504 1500 1498 1498 1497 1497 1497 1496 1496 1495 1495 1495 1495 1496 1497 1498 1499 1501 1502 1503 1504 1505 1506 1507 1508 1509 1510 1511
1528 1527 1526 1524 1523 1521 1519 1518 1516 1514 1512 1511 1508 1505 1500 1497 1492 1488 1487 1486 1486 1486 1485 1484 1484 1484 1483 1483 1484 1485 1487 1488 1490 1491 1493 1495 1496 1498 1499 1500 1502 1503 1504
1524 1522 1521 1519 1517 1515 1513 1511 1510 1507 1504 1504 1501 1500 1497 1490 1487 1481 1478 1477 1476 1475 1475 1474 1473 1473 1472 1472 1472 1473 1475 1476 1478 1480 1482 1484 1486 1488 1490 1492 1493 1495 1497
1520 1518 1516 1514 1511 1509 1507 1505 1503 1500 1497 1495 1494 1490 1488 1486 1484 1474 1472 1469 1467 1465 1465 1463 1462 1462 1462 1461 1461 1462 1463 1465 1466 1467 1470 1473 1476 1478 1480 1483 1484 1486 1488
1515 1513 1511 1508 1506 1503 1500 1498 1496 1493 1489 1487 1485 1483 1480 1476 1474 1470 1462 1462 1460 1457 1454 1453 1451 1451 1450 1450 1449 1450 1452 1453 1454 1455 1457 1460 1464 1467 1470 1473 1475 1477 1479
1511 1508 1505 1502 1499 1496 1494 1491 1488 1485 1482 1478 1476 1473 1471 1468 1465 1462 1455 1451 1450 1449 1447 1444 1441 1439 1439 1438 1438 1439 1440 1441 1442 1443 1445 1448 1451 1455 1459 1462 1465 1467 1470
1506 1503 1499 1496 1493 1489 1486 1483 1479 1476 1473 1470 1467 1464 1461 1458 1456 1454 1449 1443 1440 1437 1437 1435 1432 1430 1428 1427 1427 1427 1428 1429 1430 1431 1433 1435 1438 1442 1446 1450 1454 1457 1460
1500 1496 1493 1489 1485 1481 1478 1474 1470 1466 1463 1460 1457 1454 1451 1448 1446 1443 1440 1437 1431 1426 1425 1423 1423 1420 1418 1417 1416 1417 1417 1417 1418 1419 1421 1423 1426 1429 1433 1437 1442 1446 1449
1493 1490 1486 1481 1477 1473 1469 1465 1460 1457 1454 1450 1447 1444 1441 1438 1436 1433 1431 1429 1426 1418 1410 1412 1414 1412 1410 1408 1407 1408 1407 1407 1407 1408 1410 1412 1414 1418 1421 1425 1429 1433 1438
1487 1482 1477 1473 1469 1464 1460 1456 1451 1448 1444 1441 1438 1434 1431 1429 1426 1423 1421 1419 1416 1412 1402 1397 1402 1404 1401 1399 1398 1398 1397 1397 1397 1398 1399 1401 1403 1406 1410 1413 1417 1421 1426
1479 1474 1469 1464 1460 1455 1451 1447 1443 1439 1435 1431 1428 1424 1421 1419 1416 1413 1411 1408 1406 1403 1395 1386 1391 1393 1393 1390 1389 1388 1388 1387 1387 1387 1389 1390 1392 1395 1398 1402 1406 1410 1414
1471 1466 1461 1456 1451 1446 1442 1438 1433 1429 1425 1421 1418 1415 1411 1409 1405 1403 1400 1397 1395 1393 1389 1380 1379 1383 1382 1382 1380 1379 1378 1378 1377 1378 1379 1380 1382 1385 1388 1391 1395 1399 1403
1463 1458 1452 1447 1442 1437 1433 1428 1424 1419 1415 1411 1408 1404 1401 1399 1395 1393 1390 1387 1385 1382 1379 1374 1369 1371 1372 1372 1371 1369 1369 1368 1368 1368 1369 1370 1372 1374 1377 1380 1384 1388 1392
1455 1449 1444 1438 1433 1428 1423 1419 1414 1409 1405 1401 1397 1394 1391 1388 1384 1382 1379 1377 1375 1372 1370 1366 1362 1361 1361 1362 1361 1360 1359 1359 1358 1359 1359 1360 1362 1364 1366 1369 1373 1377 1381
1447 1441 1435 1429 1424 1419 1414 1410 1405 1400 1395 1391 1387 1384 1380 1377 1374 1372 1369 1366 1364 1362 1359 1357 1353 1352 1351 1352 1351 1351 1350 1350 1350 1350 1350 1350 1352 1353 1355 1358 1362 1365 1369
1439 1433 1427 1421 1416 1411 1406 1401 1397 1391 1386 1382 1377 1374 1371 1368 1364 1362 1359 1357 1355 1352 1349 1347 1344 1343 1341 1342 1342 1342 1342 1342 1341 1343 1342 1342 1344 1344 1346 1348 1351 1355 1359
1431 1425 1419 1413 1407 1402 1398 1393 1388 1383 1377 1373 1369 1365 1361 1358 1355 1352 1349 1346 1344 1342 1341 1339 1335 1333 1333 1333 1334 1333 1332 1332 1332 1335 1335 1334 1336 1336 1338 1339 1342 1345 1349
1423 1417 1411 1406 1400 1394 1390 1384 1379 1374 1369 1365 1361 1357 1353 1349 1346 1343 1340 1336 1334 1332 1330 1329 1326 1324 1324 1324 1324 1324 1324 1324 1325 1326 1328 1327 1328 1329 1331 1331 1333 1336 1339
1416 1410 1404 1398 1392 1386 1382 1377 1372 1367 1361 1357 1353 1349 1345 1341 1338 1336 1332 1328 1325 1322 1321 1319 1317 1316 1315 1315 1315 1315 1315 1316 1315 1316 1318 1319 1320 1322 1323 1324 1325 1328 1330
1408 1402 1396 1391 1385 1379 1375 1370 1366 1360 1355 1350 1346 1341 1338 1334 1331 1328 1325 1321 1317 1314 1313 1310 1308 1307 1306 1306 1306 1306 1306 1307 1307 1308 1309 1311 1313 1316 1316 1316 1318 1319 1321